When you browse on this site, cookies collect data to enhance your experience and personalize the content and advertising you see.
Visit our Privacy Policy to learn more. By continuing to use the site, you agree to this use of cookies and data.
  • En España
  • Lista de países
  • Para 7 días
  • Temperatura del agua
  • Mapa Satelital
  • El tiempo en el mapa
  • Informadores
  • user-avatar
    Iniciar sesión

    Tiempo cada hora Kruholets'

    Hoy, 24 Mayo, Viernes

    Tiempo Temperatura Precipitaciones Viento Presión Humedad
    00:00 +15°C° 0.4 mm 1 mps 734 mmHg 88%
    01:00 +14°C° 0.4 mm 1 mps 734 mmHg 90%
    02:00 +14°C° 0 mm 1 mps 734 mmHg 93%
    03:00 +13°C° 0 mm 1 mps 734 mmHg 94%
    04:00 +13°C° 0 mm 1 mps 734 mmHg 94%
    05:00 +13°C° 0 mm 1 mps 734 mmHg 94%
    06:00 +15°C° 0 mm 1 mps 734 mmHg 90%
    07:00 +16°C° 0 mm 1 mps 734 mmHg 86%
    08:00 +19°C° 0 mm 1 mps 735 mmHg 83%
    09:00 +20°C° 0.9 mm 1 mps 734 mmHg 77%
    10:00 +21°C° 0.9 mm 1 mps 734 mmHg 71%
    11:00 +23°C° 0.9 mm 1 mps 734 mmHg 65%
    12:00 +23°C° 0.6 mm 2 mps 734 mmHg 63%
    13:00 +23°C° 0.6 mm 2 mps 734 mmHg 61%
    14:00 +24°C° 0.6 mm 2 mps 734 mmHg 59%
    15:00 +24°C° 0.2 mm 2 mps 734 mmHg 61%
    16:00 +23°C° 0.2 mm 2 mps 734 mmHg 64%
    17:00 +23°C° 0.2 mm 2 mps 734 mmHg 67%
    18:00 +21°C° 0.5 mm 2 mps 734 mmHg 73%
    19:00 +19°C° 0.5 mm 2 mps 733 mmHg 80%
    20:00 +18°C° 0.5 mm 2 mps 733 mmHg 86%
    21:00 +18°C° 0.4 mm 1 mps 733 mmHg 88%
    22:00 +16°C° 0.4 mm 1 mps 733 mmHg 90%
    23:00 +16°C° 0.4 mm 1 mps 733 mmHg 92%

    Mañana, 25 Mayo, Sábado

    Tiempo Temperatura Precipitaciones Viento Presión Humedad
    00:00 +15°C° 0.3 mm 1 mps 733 mmHg 92%
    01:00 +15°C° 0.3 mm 1 mps 733 mmHg 93%
    02:00 +15°C° 0.3 mm 1 mps 733 mmHg 93%
    03:00 +15°C° 0 mm 2 mps 733 mmHg 94%
    04:00 +15°C° 0 mm 2 mps 733 mmHg 94%
    05:00 +15°C° 0 mm 2 mps 733 mmHg 95%
    06:00 +14°C° 0.1 mm 3 mps 733 mmHg 93%
    07:00 +16°C° 0.1 mm 3 mps 733 mmHg 91%
    08:00 +17°C° 0.1 mm 3 mps 733 mmHg 90%
    09:00 +18°C° 0.3 mm 4 mps 734 mmHg 83%
    10:00 +20°C° 0.3 mm 4 mps 734 mmHg 77%
    11:00 +21°C° 0.3 mm 4 mps 734 mmHg 71%
    12:00 +21°C° 0.7 mm 4 mps 734 mmHg 72%
    13:00 +21°C° 0.7 mm 4 mps 734 mmHg 73%
    14:00 +21°C° 0.7 mm 4 mps 734 mmHg 73%
    15:00 +21°C° 0.2 mm 4 mps 734 mmHg 74%
    16:00 +21°C° 0.2 mm 5 mps 734 mmHg 74%
    17:00 +21°C° 0.2 mm 5 mps 734 mmHg 74%
    18:00 +19°C° 0.1 mm 4 mps 734 mmHg 80%
    19:00 +18°C° 0.1 mm 3 mps 734 mmHg 86%
    20:00 +17°C° 0.1 mm 3 mps 734 mmHg 92%
    21:00 +16°C° 0 mm 3 mps 734 mmHg 92%
    22:00 +14°C° 0 mm 3 mps 734 mmHg 93%
    23:00 +14°C° 0 mm 3 mps 735 mmHg 94%

    Pasado mañana, 26 Mayo, Domingo

    Tiempo Temperatura Precipitaciones Viento Presión Humedad
    00:00 +13°C° 0 mm 3 mps 735 mmHg 93%
    01:00 +12°C° 0 mm 3 mps 735 mmHg 92%
    02:00 +12°C° 0 mm 3 mps 735 mmHg 91%
    03:00 +12°C° 0 mm 3 mps 735 mmHg 92%
    04:00 +11°C° 0 mm 3 mps 735 mmHg 92%
    05:00 +11°C° 0 mm 3 mps 736 mmHg 93%
    06:00 +13°C° 0 mm 3 mps 736 mmHg 89%
    07:00 +14°C° 0 mm 3 mps 736 mmHg 86%
    08:00 +17°C° 0 mm 3 mps 737 mmHg 82%
    09:00 +18°C° 0 mm 4 mps 737 mmHg 77%
    10:00 +19°C° 0 mm 4 mps 737 mmHg 71%
    11:00 +20°C° 0 mm 5 mps 737 mmHg 65%
    12:00 +20°C° 0 mm 4 mps 737 mmHg 64%
    13:00 +21°C° 0 mm 4 mps 737 mmHg 63%
    14:00 +21°C° 0 mm 4 mps 737 mmHg 61%
    15:00 +21°C° 0.1 mm 4 mps 736 mmHg 64%
    16:00 +21°C° 0.1 mm 4 mps 736 mmHg 66%
    17:00 +21°C° 0.1 mm 3 mps 736 mmHg 69%
    18:00 +20°C° 0.2 mm 3 mps 736 mmHg 75%
    19:00 +18°C° 0.2 mm 3 mps 736 mmHg 81%
    20:00 +17°C° 0.2 mm 2 mps 736 mmHg 87%
    21:00 +17°C° 0 mm 3 mps 736 mmHg 88%
    22:00 +16°C° 0 mm 3 mps 736 mmHg 90%
    23:00 +14°C° 0 mm 3 mps 736 mmHg 91%

    27 Mayo, Lunes

    Tiempo Temperatura Precipitaciones Viento Presión Humedad
    00:00 +14°C° 0 mm 3 mps 736 mmHg 92%
    01:00 +14°C° 0 mm 3 mps 737 mmHg 92%
    02:00 +14°C° 0 mm 3 mps 737 mmHg 93%
    03:00 +15°C° 0 mm 2 mps 737 mmHg 93%
    04:00 +14°C° 0 mm 2 mps 737 mmHg 94%
    05:00 +14°C° 0 mm 2 mps 737 mmHg 94%
    06:00 +16°C° 0 mm 2 mps 737 mmHg 90%
    07:00 +18°C° 0 mm 2 mps 737 mmHg 85%
    08:00 +19°C° 0 mm 2 mps 737 mmHg 81%
    09:00 +21°C° 0.1 mm 3 mps 737 mmHg 76%
    10:00 +22°C° 0.1 mm 3 mps 737 mmHg 72%
    11:00 +23°C° 0.1 mm 4 mps 737 mmHg 67%
    12:00 +25°C° 0.2 mm 4 mps 737 mmHg 65%
    13:00 +26°C° 0.2 mm 4 mps 737 mmHg 62%
    14:00 +26°C° 0.2 mm 3 mps 737 mmHg 60%
    15:00 +26°C° 0 mm 3 mps 737 mmHg 61%
    16:00 +26°C° 0 mm 3 mps 737 mmHg 62%
    17:00 +26°C° 0 mm 2 mps 736 mmHg 62%
    18:00 +25°C° 0 mm 2 mps 736 mmHg 68%
    19:00 +23°C° 0 mm 2 mps 736 mmHg 74%
    20:00 +21°C° 0 mm 2 mps 736 mmHg 80%
    21:00 +20°C° 0 mm 2 mps 736 mmHg 82%
    22:00 +19°C° 0 mm 2 mps 736 mmHg 84%
    23:00 +18°C° 0 mm 2 mps 736 mmHg 85%

    28 Mayo, Martes

    Tiempo Temperatura Precipitaciones Viento Presión Humedad
    00:00 +18°C° 0.3 mm 2 mps 735 mmHg 87%
    01:00 +18°C° 0.3 mm 2 mps 735 mmHg 89%
    02:00 +17°C° 0.3 mm 3 mps 735 mmHg 91%
    03:00 +17°C° 0.3 mm 3 mps 735 mmHg 92%
    04:00 +17°C° 0.3 mm 3 mps 735 mmHg 92%
    05:00 +15°C° 0.3 mm 4 mps 735 mmHg 92%
    06:00 +17°C° 0.1 mm 4 mps 735 mmHg 91%
    07:00 +18°C° 0.1 mm 4 mps 734 mmHg 90%
    08:00 +18°C° 0.1 mm 4 mps 734 mmHg 89%
    09:00 +20°C° 0 mm 5 mps 734 mmHg 83%
    10:00 +22°C° 0 mm 6 mps 734 mmHg 77%
    11:00 +23°C° 0 mm 6 mps 734 mmHg 71%
    12:00 +24°C° 0 mm 7 mps 734 mmHg 68%
    13:00 +24°C° 0 mm 7 mps 733 mmHg 65%
    14:00 +26°C° 0 mm 8 mps 733 mmHg 62%
    15:00 +26°C° 0 mm 7 mps 732 mmHg 64%
    16:00 +26°C° 0 mm 7 mps 732 mmHg 66%
    17:00 +26°C° 0 mm 6 mps 732 mmHg 68%
    18:00 +23°C° 0 mm 5 mps 731 mmHg 72%
    19:00 +22°C° 0 mm 5 mps 731 mmHg 77%
    20:00 +21°C° 0 mm 4 mps 731 mmHg 81%
    21:00 +20°C° 0 mm 4 mps 731 mmHg 81%
    22:00 +20°C° 0 mm 4 mps 731 mmHg 80%
    23:00 +19°C° 0 mm 5 mps 731 mmHg 80%

    29 Mayo, Miércoles

    Tiempo Temperatura Precipitaciones Viento Presión Humedad
    00:00 +19°C° 0 mm 4 mps 731 mmHg 84%
    01:00 +18°C° 0 mm 4 mps 731 mmHg 88%
    02:00 +17°C° 0 mm 3 mps 731 mmHg 92%
    03:00 +17°C° 0 mm 3 mps 732 mmHg 92%
    04:00 +16°C° 0 mm 3 mps 732 mmHg 92%
    05:00 +16°C° 0 mm 3 mps 732 mmHg 92%
    06:00 +18°C° 0 mm 3 mps 732 mmHg 86%
    07:00 +20°C° 0 mm 4 mps 733 mmHg 80%
    08:00 +21°C° 0 mm 4 mps 733 mmHg 73%
    09:00 +22°C° 0 mm 4 mps 733 mmHg 69%
    10:00 +25°C° 0 mm 4 mps 733 mmHg 64%
    11:00 +26°C° 0 mm 5 mps 733 mmHg 59%
    12:00 +26°C° 0.3 mm 4 mps 734 mmHg 59%
    13:00 +26°C° 0.3 mm 4 mps 734 mmHg 59%
    14:00 +26°C° 0.3 mm 4 mps 734 mmHg 59%
    15:00 +26°C° 0.8 mm 3 mps 734 mmHg 61%
    16:00 +26°C° 0.8 mm 3 mps 734 mmHg 63%
    17:00 +25°C° 0.8 mm 3 mps 734 mmHg 65%
    18:00 +24°C° 0 mm 2 mps 734 mmHg 70%
    19:00 +21°C° 0 mm 2 mps 734 mmHg 76%
    20:00 +20°C° 0 mm 2 mps 734 mmHg 81%
    21:00 +19°C° 0 mm 2 mps 735 mmHg 83%
    22:00 +18°C° 0 mm 2 mps 735 mmHg 85%
    23:00 +17°C° 0 mm 2 mps 735 mmHg 87%
    Mostrar más